Weather History for Athens, GA

Change the Weather History Date:

Wednesday, February 20, 2013

  Actual Average Record
Temperature  
Mean Temperature 43 °F 48 °F  
Max Temperature 57 °F 59 °F 78 °F (1986)
Min Temperature 28 °F 37 °F 18 °F (1958)
Degree Days  
Heating Degree Days 22 17  
Month to date heating degree days 396 373  
Since 1 July heating degree days 1865 2130  
Moisture  
Dew Point 15 °F    
Average Humidity 37    
Maximum Humidity 58    
Minimum Humidity 15    
Precipitation  
Precipitation 0.00 in 0.16 in 1.50 in (1933)
Month to date precipitation 2.72 3.20  
Year to date precipitation 7.69 7.25  
Snow  
Snow 0.00 in 0.00 in 0.00 in (2002)
Month to date snowfall 0.0 0.4  
Since 1 July snowfall 0.0 1.9  
Snow Depth -    
Sea Level Pressure  
Sea Level Pressure 30.13 in    
Wind  
Wind Speed 6 mph (West)    
Max Wind Speed 15 mph    
Max Gust Speed 25 mph    
Visibility 10 miles    
Events      
T = Trace of Precipitation, MM = Missing Value Source: NWS Daily Summary

Daily Weather History Graph

Daily Weather History Graph

Search for Another Location

Airport:

Trip Planner

Search our weather history database for the weather conditions in past years. The results will help you decide how hot, cold, wet, or windy it might be!

Date:

Astronomy

Feb. 20, 2013 Rise Set
Actual Time 7:12 AM EST 6:22 PM EST
Civil Twilight 6:46 AM EST 6:47 PM EST
Nautical Twilight 6:17 AM EST 7:16 PM EST
Astronomical Twilight 5:48 AM EST 7:45 PM EST
Moon 1:50 PM EST (2/20) 3:23 AM EST (2/20)
Length of Visible Light 12h 00m
Length of Day
11h 09m
Waxing Gibbous, 76% of the Moon is Illuminated
Feb 20
Waxing Gibbous
Feb 25
Full
Mar 4
Last Quarter
Mar 11
New
Mar 19
First Quarter

Hourly Weather History & Observations

Time (EST) Temp. Windchill Dew Point Humidity Pressure Visibility Wind Dir Wind Speed Gust Speed Precip Events Conditions
12:51 AM 39.9 °F 33.9 °F 17.1 °F 40% 30.13 in 10.0 mi WNW 9.2 mph - N/A   Clear
1:51 AM 37.9 °F 33.5 °F 16.0 °F 41% 30.13 in 10.0 mi WNW 5.8 mph - N/A   Clear
2:51 AM 36.0 °F 32.1 °F 17.1 °F 46% 30.12 in 10.0 mi WNW 4.6 mph - N/A   Clear
3:51 AM 33.1 °F 28.7 °F 17.1 °F 52% 30.12 in 10.0 mi WNW 4.6 mph - N/A   Clear
4:51 AM 33.1 °F 27.7 °F 17.1 °F 52% 30.12 in 10.0 mi West 5.8 mph - N/A   Clear
5:51 AM 30.0 °F 26.5 °F 17.1 °F 59% 30.13 in 10.0 mi WSW 3.5 mph - N/A   Clear
6:51 AM 30.0 °F - 17.1 °F 59% 30.14 in 10.0 mi Calm Calm - N/A   Clear
7:51 AM 30.9 °F 26.2 °F 17.1 °F 57% 30.16 in 10.0 mi West 4.6 mph - N/A   Clear
8:51 AM 37.9 °F 32.1 °F 17.1 °F 43% 30.19 in 10.0 mi West 8.1 mph - N/A   Clear
9:51 AM 43.0 °F 37.7 °F 15.1 °F 32% 30.18 in 10.0 mi NW 9.2 mph - N/A   Clear
10:51 AM 46.9 °F - 10.9 °F 23% 30.17 in 10.0 mi NW 6.9 mph - N/A   Clear
11:51 AM 50.0 °F - 9.0 °F 19% 30.14 in 10.0 mi Variable 4.6 mph - N/A   Clear
12:51 PM 54.0 °F - 12.0 °F 19% 30.13 in 10.0 mi Variable 5.8 mph - N/A   Clear
1:51 PM 55.0 °F - 9.0 °F 16% 30.10 in 10.0 mi WSW 6.9 mph - N/A   Clear
2:51 PM 55.0 °F - 10.0 °F 17% 30.09 in 10.0 mi West 8.1 mph - N/A   Clear
3:51 PM 54.0 °F - 12.9 °F 20% 30.10 in 10.0 mi WSW 8.1 mph - N/A   Clear
4:51 PM 52.0 °F - 15.1 °F 23% 30.13 in 10.0 mi West 11.5 mph 16.1 mph N/A   Partly Cloudy
5:51 PM 50.0 °F - 14.0 °F 24% 30.15 in 10.0 mi West 12.7 mph 25.3 mph N/A   Mostly Cloudy
6:51 PM 46.9 °F - 14.0 °F 27% 30.10 in 10.0 mi West 6.9 mph - N/A   Scattered Clouds
7:51 PM 44.1 °F 41.5 °F 15.1 °F 31% 30.10 in 10.0 mi West 4.6 mph - N/A   Clear
8:51 PM 41.0 °F 37.1 °F 16.0 °F 36% 30.10 in 10.0 mi West 5.8 mph - N/A   Clear
9:51 PM 41.0 °F 39.0 °F 15.8 °F 36% 30.10 in 10.0 mi WSW 3.5 mph - N/A   Clear
10:51 PM 39.0 °F 36.8 °F 16.0 °F 39% 30.12 in 10.0 mi West 3.5 mph - N/A   Partly Cloudy
11:51 PM 39.9 °F 35.8 °F 17.1 °F 40% 30.12 in 10.0 mi West 5.8 mph - N/A   Mostly Cloudy